FW0286 Weather Reports


Display with metric or nautical units.
time (UTC)temp
F
wind
direction
speed
MPH
gust
MPH
rain 1hr
in
rain 24hr
in
rain mn
in
humidity
%
barometer
mb
20190221185342 53 27 1.0 2.0 0.00 0.01 0.01 93 1018.3
20190221184841 53 45 1.0 2.0 0.00 0.01 0.01 93 1018.3
20190221184339 53 51 1.0 3.0 0.00 0.01 0.01 93 1018.4
20190221183840 52 78 2.0 3.0 0.00 0.01 0.01 93 1018.5
20190221183339 52 1 2.0 4.0 0.00 0.01 0.01 94 1018.5
20190221182840 52 48 2.0 4.0 0.00 0.01 0.01 93 1018.4
20190221182340 52 40 2.0 3.0 0.00 0.01 0.01 94 1018.8
20190221181841 52 15 2.0 3.0 0.00 0.01 0.01 94 1018.9
20190221181337 51 21 2.0 3.0 0.00 0.01 0.01 94 1018.9
20190221180838 51 18 2.0 2.0 0.00 0.01 0.01 94 1019.0
20190221180336 51 9 1.0 2.0 0.00 0.01 0.01 95 1019.1
20190221175837 51 27 1.0 2.0 0.00 0.01 0.01 95 1019.3
20190221175337 50 30 1.0 3.0 0.00 0.01 0.01 95 1019.1
20190221174833 50 42 2.0 3.0 0.00 0.01 0.01 95 1019.2
20190221174334 49 49 2.0 4.0 0.00 0.01 0.01 95 1019.3
20190221173833 49 39 3.0 4.0 0.00 0.01 0.01 95 1019.4
20190221173333 49 27 3.0 4.0 0.00 0.01 0.01 96 1019.5
20190221172831 49 347 3.0 5.0 0.00 0.01 0.01 96 1019.6
20190221172331 48 3 4.0 5.0 0.00 0.01 0.01 95 1019.8
20190221171829 48 65 3.0 5.0 0.00 0.01 0.01 95 1019.8
20190221171330 48 39 4.0 5.0 0.00 0.01 0.01 95 1019.9
20190221170828 48 21 4.0 5.0 0.00 0.01 0.01 95 1020.0
20190221170329 48 14 3.0 5.0 0.00 0.01 0.01 95 1020.0
20190221165828 48 25 3.0 4.0 0.00 0.01 0.01 95 1020.0
20190221165329 48 25 3.0 5.0 0.00 0.01 0.01 95 1020.2
20190221164829 48 20 4.0 5.0 0.00 0.01 0.01 94 1020.1
20190221164325 48 18 2.0 4.0 0.00 0.01 0.01 94 1020.1
20190221163826 49 27 1.0 3.0 0.00 0.01 0.01 96 1020.3
20190221163327 48 53 0.0 1.0 0.00 0.01 0.01 95 1020.5
20190221162826 48 13 0.0 1.0 0.00 0.01 0.01 96 1020.5
20190221162324 47 49 0.0 1.0 0.00 0.01 0.01 96 1020.5
20190221161824 47 7 1.0 2.0 0.00 0.01 0.01 96 1020.6
20190221161320 47 10 1.0 4.0 0.00 0.01 0.01 96 1020.7
20190221160819 47 4 1.0 4.0 0.00 0.01 0.01 95 1020.6
20190221160320 47 354 1.0 2.0 0.00 0.01 0.01 96 1020.6
20190221155819 46 350 1.0 1.0 0.00 0.01 0.01 96 1020.6
20190221155321 46 23 1.0 2.0 0.00 0.01 0.01 96 1020.6
20190221154820 46 41 1.0 3.0 0.00 0.01 0.01 96 1020.6
20190221154319 46 27 1.0 3.0 0.00 0.01 0.01 96 1020.5
20190221153819 46 25 1.0 3.0 0.00 0.01 0.01 95 1020.5
20190221153321 46 23 1.0 2.0 0.00 0.02 0.01 95 1020.5
20190221152819 46 22 0.0 1.0 0.00 0.02 0.01 96 1020.6
20190221152320 46 198 0.0 1.0 0.00 0.02 0.01 96 1020.4
20190221151819 46 198 0.0 1.0 0.00 0.02 0.01 96 1020.4
20190221151319 45 118 0.0 1.0 0.00 0.02 0.01 96 1020.4
20190221150821 45 161 0.0 1.0 0.00 0.02 0.01 97 1020.4
20190221150320 45 124 0.0 0.0 0.00 0.03 0.01 97 1020.4
20190221145819 44 103 0.0 0.0 0.00 0.03 0.01 97 1020.6
20190221145317 44 38 0.0 0.0 0.00 0.05 0.01 97 1020.7
20190221144818 44 154 0.0 1.0 0.00 0.06 0.01 97 1020.8
20190221144317 44 166 0.0 1.0 0.00 0.07 0.01 97 1020.7
20190221143818 44 165 0.0 1.0 0.00 0.08 0.01 97 1020.5
20190221143319 44 232 0.0 1.0 0.00 0.08 0.01 97 1020.5
20190221142818 43 232 0.0 1.0 0.00 0.08 0.01 97 1020.5
20190221142317 43 286 0.0 1.0 0.00 0.08 0.01 97 1020.6
20190221141816 43 321 0.0 0.0 0.00 0.08 0.01 97 1020.7
20190221141317 43 321 0.0 1.0 0.00 0.08 0.01 97 1020.7
20190221140815 43 321 0.0 1.0 0.00 0.08 0.01 97 1020.8
20190221140313 43 335 0.0 1.0 0.00 0.08 0.01 97 1021.0
20190221135814 43 271 0.0 1.0 0.00 0.08 0.01 97 1020.8
20190221135314 42 214 0.0 1.0 0.00 0.10 0.01 97 1020.9
20190221134814 43 207 0.0 1.0 0.01 0.12 0.01 97 1021.0
20190221134313 43 217 0.0 1.0 0.01 0.12 0.01 97 1020.9
20190221133813 43 264 0.0 1.0 0.01 0.12 0.01 97 1020.8
20190221133313 43 191 0.0 2.0 0.01 0.12 0.01 97 1020.9
20190221132811 43 236 0.0 2.0 0.01 0.12 0.01 97 1021.0
20190221132313 43 272 0.0 1.0 0.01 0.13 0.01 97 1020.7
20190221131811 42 128 0.0 1.0 0.01 0.14 0.01 97 1020.5
20190221131312 42 128 0.0 1.0 0.01 0.14 0.01 97 1020.3
20190221130811 42 129 0.0 1.0 0.01 0.14 0.01 97 1020.2
20190221130311 42 129 0.0 1.0 0.01 0.14 0.01 97 1019.9
20190221125811 42 129 0.0 2.0 0.01 0.14 0.01 97 1019.7
20190221125311 42 170 1.0 2.0 0.01 0.14 0.01 97 1019.7
20190221124811 42 123 0.0 2.0 0.00 0.13 0.00 97 1019.5
20190221124311 42 167 0.0 1.0 0.00 0.13 0.00 97 1019.6
20190221123809 42 219 0.0 1.0 0.00 0.13 0.00 97 1019.6
20190221123310 41 182 0.0 2.0 0.00 0.13 0.00 97 1019.3
20190221122808 41 120 0.0 2.0 0.00 0.13 0.00 97 1019.3
20190221122310 41 117 0.0 1.0 0.00 0.13 0.00 97 1019.2
20190221121809 41 77 0.0 1.0 0.00 0.13 0.00 97 1019.0
20190221121311 41 315 0.0 0.0 0.00 0.13 0.00 97 1019.1
20190221120811 41 315 0.0 0.0 0.00 0.13 0.00 97 1019.1
20190221120310 41 315 0.0 0.0 0.00 0.13 0.00 97 1019.2
20190221115808 41 315 0.0 0.0 0.00 0.13 0.00 97 1019.1
20190221115308 41 315 0.0 1.0 0.00 0.13 0.00 97 1019.1
20190221114807 41 315 0.0 1.0 0.00 0.13 0.00 97 1019.1
20190221114309 41 315 0.0 1.0 0.00 0.13 0.00 97 1018.9
20190221113809 41 315 0.0 1.0 0.00 0.13 0.00 97 1018.8
20190221113309 41 315 0.0 2.0 0.00 0.13 0.00 97 1018.6
20190221112809 41 315 0.0 2.0 0.00 0.13 0.00 97 1018.8
20190221112308 41 310 0.0 2.0 0.00 0.14 0.00 97 1018.7
20190221111807 41 2 0.0 2.0 0.00 0.14 0.00 97 1018.9
20190221111308 41 315 0.0 2.0 0.00 0.16 0.00 97 1019.1
20190221110807 41 297 0.0 2.0 0.00 0.16 0.00 97 1019.0
20190221110308 41 125 0.0 0.0 0.00 0.17 0.00 97 1018.9
20190221105807 41 125 0.0 0.0 0.00 0.17 0.00 97 1018.5
20190221105306 41 125 0.0 0.0 0.00 0.17 0.00 97 1018.2
20190221104805 41 126 0.0 0.0 0.00 0.17 0.00 97 1018.3
20190221104306 41 148 0.0 0.0 0.00 0.17 0.00 97 1018.4
20190221103806 41 148 0.0 0.0 0.00 0.17 0.00 97 1018.5
20190221103305 41 148 0.0 0.0 0.00 0.17 0.00 97 1018.7
20190221102806 41 148 0.0 0.0 0.00 0.17 0.00 97 1018.6
20190221102306 41 148 0.0 0.0 0.00 0.17 0.00 97 1018.3
20190221101806 41 147 0.0 0.0 0.00 0.17 0.00 97 1018.2
20190221101304 41 148 0.0 0.0 0.00 0.17 0.00 97 1018.0
20190221100801 40 147 0.0 0.0 0.00 0.17 0.00 97 1018.1
20190221100301 40 148 0.0 0.0 0.00 0.17 0.00 97 1018.1
20190221095802 40 200 0.0 0.0 0.00 0.17 0.00 97 1018.3
20190221095302 40 200 0.0 0.0 0.00 0.17 0.00 97 1018.3
20190221094800 40 200 0.0 0.0 0.00 0.17 0.00 97 1018.4
20190221094301 40 200 0.0 0.0 0.00 0.17 0.00 97 1018.4
20190221093802 40 198 0.0 0.0 0.00 0.17 0.00 97 1018.4
20190221093301 40 209 0.0 0.0 0.00 0.17 0.00 97 1018.2
20190221092801 40 210 0.0 0.0 0.00 0.17 0.00 97 1018.3
20190221092305 40 209 0.0 0.0 0.00 0.17 0.00 97 1018.2
20190221091800 40 209 0.0 0.0 0.00 0.17 0.00 97 1018.1
20190221091300 40 210 0.0 0.0 0.00 0.17 0.00 97 1018.2
20190221090758 40 209 0.0 0.0 0.00 0.17 0.00 97 1018.3
20190221090301 40 209 0.0 0.0 0.00 0.17 0.00 97 1018.3
20190221085800 40 201 0.0 0.0 0.00 0.17 0.00 97 1018.3
20190221085259 40 209 0.0 0.0 0.00 0.17 0.00 97 1018.3
20190221084800 40 203 0.0 0.0 0.00 0.17 0.00 97 1018.5
20190221084300 40 195 0.0 0.0 0.00 0.17 0.00 97 1018.4
20190221083758 40 200 0.0 0.0 0.00 0.17 0.00 97 1018.5
20190221083259 40 200 0.0 0.0 0.00 0.17 0.00 97 1018.5
20190221082757 40 194 0.0 0.0 0.00 0.17 0.00 97 1018.5
20190221082256 40 195 0.0 0.0 0.00 0.17 0.00 97 1018.7
20190221081756 40 207 0.0 0.0 0.00 0.17 0.00 97 1018.8
20190221081258 40 205 0.0 0.0 0.00 0.17 0.00 97 1018.9
20190221080756 40 205 0.0 1.0 0.00 0.17 0.00 97 1018.9
20190221080256 40 218 0.0 2.0 0.00 0.17 0.00 97 1019.0
20190221075757 40 212 0.0 3.0 0.00 0.17 0.00 97 1019.0
20190221075257 40 167 0.0 3.0 0.00 0.17 0.00 97 1018.8
20190221074756 40 238 1.0 3.0 0.00 0.17 0.00 97 1018.7
20190221074258 40 304 1.0 5.0 0.00 0.17 0.00 97 1018.9
20190221073758 40 67 1.0 5.0 0.00 0.17 0.00 97 1018.2
20190221073256 40 77 0.0 3.0 0.00 0.17 0.00 97 1018.5
20190221072755 40 72 0.0 1.0 0.00 0.17 0.00 96 1019.0
20190221072256 40 37 0.0 1.0 0.00 0.17 0.00 96 1019.1
20190221071754 40 16 0.0 1.0 0.00 0.17 0.00 97 1019.4
20190221071256 40 15 0.0 1.0 0.00 0.17 0.00 97 1019.5
20190221070754 40 14 0.0 1.0 0.00 0.17 0.00 96 1019.6
20190221070254 40 27 0.0 0.0 0.00 0.17 0.00 96 1019.6
20190221065754 40 27 0.0 2.0 0.00 0.17 0.00 96 1019.8
20190221065254 40 28 0.0 2.0 0.00 0.17 0.00 96 1019.8
20190221064751 40 319 0.0 2.0 0.00 0.17 0.00 96 1019.9
20190221064250 40 12 0.0 2.0 0.00 0.17 0.00 96 1020.1
20190221063752 40 307 0.0 1.0 0.00 0.17 0.00 96 1020.1
20190221063250 40 27 0.0 3.0 0.00 0.17 0.00 96 1020.0
20190221062751 40 27 0.0 3.0 0.00 0.17 0.00 96 1019.8
20190221062251 40 45 0.0 2.0 0.00 0.17 0.00 96 1019.9
20190221061751 40 329 0.0 1.0 0.00 0.17 0.00 96 1020.2
20190221061251 40 0 0.0 1.0 0.00 0.17 0.00 96 1020.1
20190221060752 40 338 0.0 0.0 0.00 0.17 0.00 96 1020.2
20190221060251 40 32 0.0 1.0 0.00 0.17 0.00 96 1020.1
20190221055751 40 32 0.0 1.0 0.00 0.17 0.00 96 1020.2
20190221055251 40 34 0.0 2.0 0.00 0.17 0.00 96 1020.1
20190221054751 40 310 0.0 2.0 0.00 0.17 0.00 96 1020.1
20190221054252 40 312 1.0 2.0 0.00 0.17 0.00 96 1019.9
20190221053751 40 293 0.0 2.0 0.00 0.17 0.00 96 1019.8
20190221053252 40 314 0.0 2.0 0.00 0.17 0.00 96 1019.8
20190221052752 40 31 0.0 1.0 0.00 0.17 0.00 96 1019.8
20190221052250 40 32 0.0 1.0 0.00 0.17 0.00 96 1019.8
20190221051750 40 303 0.0 1.0 0.00 0.17 0.00 96 1020.0
20190221051248 40 28 0.0 1.0 0.00 0.17 0.00 96 1019.7
20190221050749 40 312 0.0 0.0 0.00 0.17 0.00 96 1019.9
20190221050248 40 312 0.0 1.0 0.00 0.17 0.00 96 1019.9
20190221045749 40 311 0.0 1.0 0.00 0.17 0.17 96 1020.1
20190221045247 40 349 0.0 1.0 0.00 0.17 0.17 96 1019.8
20190221044750 40 349 0.0 1.0 0.00 0.17 0.17 96 1020.1
20190221044250 40 349 0.0 1.0 0.00 0.17 0.17 96 1020.4
20190221043748 40 359 0.0 1.0 0.00 0.17 0.17 96 1020.3
20190221043249 40 338 0.0 1.0 0.00 0.17 0.17 96 1020.5
20190221042748 40 338 0.0 1.0 0.00 0.17 0.17 96 1020.3
20190221042247 40 84 1.0 4.0 0.00 0.17 0.17 96 1019.9
20190221041749 40 75 1.0 4.0 0.00 0.17 0.17 96 1019.6
20190221041246 40 63 1.0 5.0 0.00 0.17 0.17 96 1019.4
20190221040746 40 119 1.0 5.0 0.00 0.17 0.17 96 1019.6
20190221040247 40 123 1.0 2.0 0.00 0.17 0.17 96 1020.0
20190221035744 40 169 1.0 3.0 0.00 0.17 0.17 96 1019.9
20190221035244 40 142 1.0 3.0 0.00 0.17 0.17 96 1020.1
20190221034744 40 135 1.0 3.0 0.00 0.17 0.17 96 1020.1
20190221034244 40 37 1.0 4.0 0.00 0.17 0.17 96 1020.2
20190221033743 40 75 1.0 5.0 0.00 0.17 0.17 96 1020.2
20190221033242 40 53 1.0 5.0 0.00 0.17 0.17 96 1019.9
20190221032743 40 36 1.0 5.0 0.00 0.17 0.17 96 1019.8
20190221032240 40 189 2.0 8.0 0.00 0.17 0.17 96 1019.5
20190221031739 40 77 3.0 9.0 0.00 0.17 0.17 95 1019.3
20190221031241 40 136 3.0 9.0 0.00 0.17 0.17 96 1019.1
20190221030740 40 91 2.0 7.0 0.00 0.17 0.17 95 1019.6
20190221030239 40 63 1.0 4.0 0.00 0.17 0.17 95 1019.9
20190221025740 40 77 1.0 6.0 0.00 0.17 0.17 95 1020.0
20190221025239 40 340 1.0 6.0 0.00 0.18 0.17 95 1020.5
20190221024740 40 83 3.0 6.0 0.00 0.18 0.17 95 1020.6
20190221024240 40 84 4.0 6.0 0.00 0.18 0.17 95 1020.8
20190221023741 40 32 3.0 7.0 0.00 0.18 0.17 96 1021.0
20190221023241 40 11 2.0 7.0 0.00 0.18 0.17 96 1021.4
20190221022741 40 44 2.0 7.0 0.00 0.18 0.17 95 1021.7
20190221022241 40 7 4.0 7.0 0.00 0.18 0.17 96 1021.8
20190221021738 40 1 4.0 7.0 0.00 0.18 0.17 96 1021.6
20190221021238 40 34 5.0 7.0 0.00 0.18 0.17 96 1021.4
20190221020739 40 42 4.0 7.0 0.00 0.18 0.17 96 1021.6
20190221020238 40 28 4.0 7.0 0.00 0.19 0.17 96 1021.9
20190221015739 40 17 5.0 8.0 0.00 0.19 0.17 96 1021.7
20190221015235 40 1 5.0 8.0 0.00 0.19 0.17 96 1021.6
20190221014738 40 17 5.0 8.0 0.00 0.19 0.17 96 1021.8
20190221014236 40 13 5.0 8.0 0.00 0.19 0.17 96 1021.8
20190221013734 40 34 6.0 12.0 0.00 0.19 0.17 96 1021.7
20190221013236 40 4 6.0 12.0 0.00 0.19 0.17 96 1021.7
20190221012735 40 8 4.0 11.0 0.00 0.19 0.17 96 1021.8
20190221012234 40 345 4.0 8.0 0.00 0.19 0.17 96 1021.9
20190221011736 40 349 3.0 8.0 0.00 0.19 0.17 96 1022.1
20190221011233 40 5 3.0 7.0 0.00 0.19 0.17 96 1022.1
20190221010735 40 6 3.0 7.0 0.00 0.19 0.17 96 1022.2
20190221010231 40 319 3.0 7.0 0.00 0.19 0.17 96 1022.5
20190221005734 40 323 3.0 6.0 0.00 0.20 0.17 96 1022.5
20190221005233 40 343 3.0 6.0 0.00 0.20 0.17 96 1022.4
20190221004732 40 336 3.0 5.0 0.00 0.20 0.17 96 1022.4
20190221004232 40 352 3.0 6.0 0.00 0.21 0.17 96 1022.8
20190221003733 40 340 3.0 6.0 0.00 0.21 0.17 96 1022.7
20190221003232 40 349 3.0 5.0 0.00 0.21 0.17 96 1022.4
20190221002732 40 354 4.0 9.0 0.00 0.21 0.17 96 1021.9
20190221002233 41 358 6.0 9.0 0.00 0.22 0.17 96 1021.6
20190221001731 41 7 7.0 11.0 0.00 0.22 0.17 96 1021.3
20190221001232 41 13 7.0 11.0 0.00 0.22 0.17 95 1021.0
20190221000732 41 12 6.0 9.0 0.00 0.22 0.17 95 1021.0
20190221000230 41 34 5.0 9.0 0.00 0.22 0.17 95 1021.2
20190220235730 41 12 6.0 10.0 0.00 0.22 0.17 95 1021.0
20190220235231 41 22 7.0 10.0 0.00 0.22 0.17 95 1021.0
20190220234727 41 18 8.0 11.0 0.00 0.22 0.17 95 1020.7
20190220234228 41 10 7.0 11.0 0.00 0.22 0.17 95 1021.0
20190220233729 41 15 7.0 10.0 0.00 0.22 0.17 95 1021.2
20190220233225 41 11 6.0 10.0 0.00 0.22 0.17 95 1021.3
20190220232726 41 14 5.0 10.0 0.00 0.22 0.17 95 1021.1
20190220232225 41 24 4.0 6.0 0.00 0.22 0.17 95 1021.2
20190220231725 41 18 4.0 8.0 0.00 0.22 0.17 95 1021.3
20190220231227 41 2 4.0 8.0 0.00 0.22 0.17 96 1021.5
20190220230726 41 23 4.0 8.0 0.00 0.22 0.17 95 1021.4
20190220230225 41 1 5.0 9.0 0.00 0.22 0.17 95 1021.4
20190220225726 41 44 5.0 9.0 0.00 0.22 0.17 96 1021.4
20190220225227 41 33 3.0 9.0 0.00 0.22 0.17 95 1021.4
20190220224727 41 15 3.0 8.0 0.00 0.22 0.17 95 1021.5
20190220224226 41 15 5.0 8.0 0.00 0.22 0.17 96 1021.5
20190220223726 41 354 4.0 8.0 0.00 0.22 0.17 95 1021.5
20190220223226 41 14 4.0 10.0 0.00 0.22 0.17 96 1021.5
20190220222727 41 353 5.0 10.0 0.00 0.23 0.17 95 1021.6
20190220222227 41 354 6.0 12.0 0.00 0.23 0.17 95 1021.3
20190220221726 41 6 6.0 12.0 0.00 0.24 0.17 95 1021.4
20190220221226 41 5 6.0 10.0 0.00 0.25 0.17 95 1021.4
20190220220726 41 5 6.0 11.0 0.00 0.25 0.17 95 1021.5
20190220220226 41 12 4.0 11.0 0.00 0.25 0.17 96 1021.6
20190220215726 41 7 3.0 6.0 0.00 0.25 0.17 95 1021.6
20190220215226 41 11 3.0 7.0 0.00 0.25 0.17 95 1021.6
20190220214726 41 7 3.0 7.0 0.00 0.25 0.17 95 1021.7
20190220214225 41 338 3.0 6.0 0.00 0.25 0.17 95 1021.5
20190220213726 41 356 3.0 5.0 0.00 0.26 0.17 95 1021.7
20190220213226 41 326 3.0 10.0 0.00 0.26 0.17 95 1021.7
20190220212726 41 350 4.0 10.0 0.00 0.26 0.17 95 1021.7
20190220212225 41 359 3.0 9.0 0.00 0.26 0.17 96 1021.6
20190220211727 41 41 2.0 5.0 0.00 0.26 0.17 95 1021.8
20190220211226 41 326 3.0 5.0 0.00 0.26 0.17 95 1021.8
20190220210726 41 319 3.0 5.0 0.00 0.26 0.17 95 1021.7
20190220210225 41 301 3.0 7.0 0.00 0.27 0.17 95 1021.8
20190220205726 41 342 4.0 7.0 0.00 0.27 0.17 95 1021.8
20190220205225 41 356 4.0 8.0 0.00 0.27 0.17 95 1021.6
20190220204725 41 347 4.0 8.0 0.00 0.27 0.17 95 1021.6
20190220204225 41 13 3.0 7.0 0.00 0.27 0.17 95 1021.5
20190220203726 41 345 4.0 11.0 0.00 0.27 0.17 95 1021.4
20190220203227 41 348 5.0 11.0 0.00 0.27 0.17 95 1021.7
20190220202726 41 4 4.0 10.0 0.00 0.27 0.17 95 1021.4
20190220202226 41 356 4.0 8.0 0.00 0.27 0.17 95 1021.4
20190220201726 41 356 4.0 8.0 0.00 0.27 0.17 95 1021.5
20190220201225 41 8 3.0 8.0 0.00 0.27 0.17 95 1021.6
20190220200727 41 351 3.0 6.0 0.00 0.27 0.17 95 1021.7
20190220200225 41 359 3.0 9.0 0.00 0.27 0.17 95 1021.8
20190220195726 41 346 3.0 9.0 0.00 0.27 0.17 95 1021.8
20190220195225 41 349 2.0 6.0 0.00 0.27 0.17 95 1021.4
20190220194726 41 352 3.0 6.0 0.00 0.27 0.17 95 1021.5
20190220194226 41 0 3.0 7.0 0.00 0.27 0.17 95 1021.5
20190220193724 41 1 4.0 8.0 0.00 0.27 0.17 95 1021.8
20190220193222 41 359 4.0 8.0 0.00 0.27 0.17 95 1021.8
20190220192722 41 8 4.0 8.0 0.00 0.27 0.17 95 1021.9
20190220192223 41 357 5.0 8.0 0.00 0.27 0.17 95 1021.7
20190220191721 41 321 4.0 7.0 0.00 0.27 0.17 94 1021.7
20190220191223 41 41 4.0 7.0 0.00 0.27 0.17 95 1021.6
20190220190722 41 2 4.0 9.0 0.00 0.27 0.17 94 1021.8
20190220190221 41 13 6.0 10.0 0.00 0.27 0.17 94 1021.8